CAPE
0 0 0 0 0 0 0 0 1072 2048 1863 1606 1477 1423 1333 1225 1018 767 601 561 475 380 438 143 31 6 6 3 193 218 285 213
0 0 0 0 0 0 0 0 170 1902 1882 1410 1209 1177 1295 1295 1049 956 689 583 483 462 427 184 40 2 0 87 231 197 19 67
0 0 0 0 0 0 0 0 0 1580 1800 1829 1721 1634 1371 1328 1223 868 772 636 532 475 640 394 100 119 72 67 178 73 41 5
0 0 0 0 0 0 0 0 0 1222 1873 1923 1990 1829 1786 1469 1145 898 895 816 656 487 493 344 239 235 72 66 351 244 88 2
9 17 40 0 0 0 0 0 0 711 2303 2263 1982 1856 1819 1613 1421 1324 1122 876 753 589 417 542 369 264 139 40 264 329 211 26
3 192 34 0 0 0 0 0 0 26 2265 2572 2382 2467 2389 2279 1782 1566 1172 851 782 581 473 466 521 360 310 90 59 272 295 199
117 33 285 66 0 0 0 0 0 0 2117 2731 2725 2669 2527 2409 2016 1716 1200 966 807 568 498 477 630 475 378 221 134 187 415 361
51 16 11 82 357 0 0 0 0 0 1697 2649 2870 2804 2745 2462 2139 1954 1371 1222 935 693 530 486 853 928 576 177 103 271 525 622
32 10 20 13 11 374 0 0 0 44 1515 2690 2966 2949 2604 2459 2278 2217 1702 1328 1336 1010 637 751 875 737 503 226 94 151 476 467
22 6 10 15 8 5 325 650 75 322 1567 2789 2937 2882 2414 2403 2354 2375 1744 1474 1173 1053 759 751 724 682 635 438 179 109 63 38
10 17 14 14 14 4 2 2 89 511 1709 2672 2812 2644 2198 2077 2128 2111 1848 1555 1017 965 767 659 574 606 555 240 223 136 75 51
14 15 11 7 9 6 3 4 4 2 2 624 1984 1749 1762 1780 1762 1744 1720 1161 719 659 537 482 387 344 286 212 145 70 45 27
9 7 3 12 7 9 5 5 5 3 1 2 3 22 244 628 585 285 323 348 162 217 218 237 262 258 249 145 53 20 34 14
9 1 1 1 15 11 6 5 6 3 0 3 5 3 3 3 64 467 240 173 61 11 58 55 86 85 102 47 10 4 4 14
8 5 2 1 6 6 4 4 4 3 1 2 3 3 2 2 2 3 23 30 29 42 63 63 46 36 28 3 4 1 4 18
9 9 8 2 0 1 2 4 3 3 2 2 4 5 3 2 2 1 1 3 10 32 40 32 28 5 6 2 3 8 8 4
12 11 8 10 6 3 1 3 2 2 2 2 2 1 1 6 4 2 1 1 1 1 1 0 1 0 0 0 0 3 3 2
17 13 10 9 8 8 6 5 4 1 1 1 1 1 1 1 1 0 2 5 5 2 1 0 1 2 1 1 0 0 2 3
4 12 7 5 4 7 4 1 1 1 1 1 1 2 2 1 1 1 2 2 2 2 1 1 2 2 1 1 1 1 1 0
CIN
-0 -0 -0 -0 -0 -0 -0 -0 -135 -49 -95 -171 -197 -228 -205 -246 -303 -298 -335 -331 -302 -280 -206 -285 -298 -0 -0 -0 -88 -42 -21 -43
-0 -0 -0 -0 -0 -0 -0 -0 -144 -39 -51 -145 -227 -271 -267 -205 -313 -327 -312 -324 -312 -271 -229 -261 -304 -0 -0 -96 -92 -80 -165 -62
-0 -0 -0 -0 -0 -0 -0 -0 -0 -75 -81 -120 -170 -224 -276 -273 -280 -333 -322 -306 -331 -307 -222 -225 -286 -249 -254 -246 -148 -206 -96 -0
-0 -0 -0 -0 -0 -0 -0 -0 -0 -89 -80 -85 -89 -103 -124 -168 -234 -301 -337 -310 -309 -333 -282 -269 -249 -219 -271 -264 -110 -108 -126 -0
-219 -121 -121 -0 -0 -0 -0 -0 -0 -134 -24 -37 -118 -112 -167 -229 -292 -340 -318 -320 -302 -309 -304 -227 -232 -222 -239 -297 -139 -88 -85 -135
-0 -6 -83 -0 -0 -0 -0 -0 -0 -221 -24 -9 -43 -51 -116 -161 -207 -235 -291 -323 -305 -327 -312 -258 -213 -220 -195 -258 -240 -114 -79 -81
-0 -2 -2 -17 -0 -0 -0 -0 -0 -0 -36 -3 -25 -54 -82 -104 -169 -191 -291 -328 -296 -325 -316 -271 -209 -214 -197 -211 -207 -148 -62 -57
-0 -0 -6 -117 -45 -0 -0 -0 -0 -0 -109 -37 -26 -40 -48 -91 -176 -195 -256 -249 -262 -309 -333 -288 -197 -151 -165 -230 -245 -137 -64 -37
-0 -0 -0 -0 -20 -35 -0 -0 -0 -297 -147 -59 -39 -28 -42 -85 -122 -147 -185 -216 -246 -300 -301 -243 -179 -184 -177 -219 -239 -182 -80 -69
-0 -0 -0 -0 -0 -0 -147 -188 -219 -262 -130 -50 -30 -19 -28 -65 -87 -70 -151 -181 -196 -209 -245 -228 -178 -170 -129 -134 -179 -218 -206 -212
-0 -0 -0 -0 -0 -0 -0 -0 -276 -333 -45 -0 -2 -0 -32 -73 -65 -51 -75 -86 -161 -149 -171 -179 -178 -156 -136 -177 -155 -170 -177 -163
-0 -0 -0 -0 -0 -0 -0 -0 -0 -0 -0 -239 -17 -17 -0 -2 -4 -1 -1 -52 -123 -139 -140 -154 -185 -201 -180 -154 -135 -164 -170 -159
-0 -0 -0 -0 -0 -0 -0 -0 -0 -0 -0 -0 -16 -456 -166 -37 -44 -126 -137 -143 -172 -109 -109 -132 -179 -177 -157 -119 -137 -164 -131 -156
-0 -0 -0 -0 -0 -0 -0 -0 -0 -0 -0 -0 -0 -0 -0 -0 -38 -5 -66 -116 -229 -169 -139 -121 -140 -184 -137 -147 -129 -75 -117 -114
-0 -0 -0 -0 -0 -0 -0 -0 -0 -0 -0 -0 -0 -0 -0 -0 -0 -0 -129 -182 -238 -190 -60 -79 -92 -122 -125 -102 -60 -47 -29 -52
-0 -0 -0 -0 -0 -0 -0 -0 -0 -0 -0 -0 -0 -0 -0 -0 -0 -0 -0 -33 -93 -69 -91 -113 -117 -130 -154 -50 -40 -70 -52 -48
-0 -0 -0 -0 -0 -0 -0 -0 -0 -0 -0 -0 -0 -0 -0 -0 -0 -0 -0 -0 -0 -0 -0 -0 -0 -0 -0 -0 -0 -11 -0 -0
-0 -0 -0 -0 -0 -0 -0 -0 -0 -0 -0 -0 -0 -0 -0 -0 -0 -0 -0 -0 -0 -0 -0 -0 -0 -0 -0 -0 -0 -0 -0 -6
-0 -0 -0 -0 -0 -0 -0 -0 -0 -0 -0 -0 -0 -0 -0 -0 -0 -0 -0 -0 -0 -0 -0 -0 -0 -0 -0 -0 -0 -0 -0 -0
Wind_Speed
28 25 20 22 19 20 17 12 17 18 13 12 11 10 12 11 11 11 15 11 15 13 10 11 10 8 7 7 10 8 8 7
24 27 23 20 21 20 20 14 16 13 13 13 13 14 13 11 11 15 14 13 14 14 10 12 12 10 11 12 9 12 6 9
25 24 25 21 21 21 20 18 15 17 14 14 13 13 12 12 11 12 14 15 16 14 14 12 13 11 12 13 13 7 4 10
32 25 23 24 21 20 21 20 15 18 20 12 10 10 6 10 11 11 15 17 16 15 17 14 13 11 10 12 14 15 9 9
31 31 26 23 24 19 21 20 18 17 19 16 18 15 15 13 15 14 13 17 16 16 16 16 14 10 11 11 11 13 12 11
35 28 28 23 23 17 19 19 18 17 19 20 19 19 15 11 11 15 15 15 16 17 16 18 15 11 12 12 12 13 12 11
27 26 25 16 16 17 18 17 19 16 20 23 23 23 17 12 14 13 12 13 12 16 16 17 16 15 15 13 14 17 14 12
22 25 25 23 14 17 16 17 19 17 21 22 22 20 19 19 17 14 14 12 11 15 17 17 15 15 14 13 13 14 16 13
26 27 25 23 22 14 11 14 15 15 19 20 20 20 13 14 16 14 12 12 14 17 16 16 16 15 14 14 10 10 13 11
25 26 28 25 24 20 16 1 8 11 15 15 17 17 16 14 15 13 11 13 10 13 14 15 16 15 16 14 10 11 11 11
24 22 27 24 21 19 22 18 14 11 0 12 13 14 12 10 10 13 16 14 14 13 14 14 15 15 15 14 10 11 12 9
21 21 24 23 21 21 19 17 16 14 13 8 7 7 7 9 9 10 10 10 12 12 14 14 14 15 13 12 11 12 12 11
21 22 24 25 23 21 20 17 16 13 14 14 13 13 7 2 5 6 7 7 6 6 8 10 12 13 13 13 12 11 13 12
21 22 24 21 20 19 18 17 16 16 19 18 13 17 10 11 5 7 9 10 8 8 4 4 8 13 15 13 13 11 11 10
19 19 20 18 20 20 21 20 18 16 19 18 14 18 14 10 9 8 3 4 7 5 10 10 9 11 11 11 12 11 11 10
19 20 18 18 19 20 21 21 21 20 19 16 15 14 13 12 14 12 10 3 5 8 8 8 9 9 7 10 10 9 11 9
19 18 17 17 19 21 21 17 18 15 15 16 16 15 12 11 12 12 12 11 6 4 6 8 8 5 9 11 9 9 9 8
17 18 17 16 18 16 16 17 16 17 16 15 16 15 15 14 13 13 11 9 7 8 2 2 4 6 8 12 9 5 7 8
19 15 15 16 15 16 15 15 16 16 17 17 16 15 14 13 12 12 11 9 10 7 10 11 1 10 6 4 8 5 5 5
Wind_Direction
303 293 278 272 269 266 261 238 227 214 201 191 193 192 195 188 188 199 199 190 191 186 182 173 171 169 169 180 183 182 185 171
293 287 279 261 261 260 257 233 221 203 195 192 189 197 193 200 194 189 198 191 187 192 184 177 179 179 184 185 186 174 164 163
308 296 274 265 251 253 251 243 222 205 200 197 202 195 200 197 191 189 193 197 188 189 185 183 184 183 186 186 182 173 152 178
308 305 274 259 245 242 251 256 235 208 205 191 187 187 171 192 189 190 197 196 193 192 192 185 184 185 183 187 190 187 173 191
318 312 286 250 249 231 243 244 239 217 199 190 185 193 188 199 195 192 190 189 193 190 194 189 182 180 182 183 194 195 191 185
326 313 299 258 249 225 233 238 234 218 197 198 192 199 206 187 189 189 187 190 194 190 191 192 184 182 182 179 183 198 199 195
330 342 333 301 255 232 230 229 224 207 198 202 196 202 198 188 183 188 184 186 189 192 190 194 188 187 186 182 186 197 199 203
336 346 343 336 312 239 230 224 230 201 196 198 199 202 197 200 187 188 180 180 185 192 189 193 191 186 183 181 185 194 198 200
340 351 348 344 347 354 234 223 216 193 192 196 194 197 201 201 193 189 188 195 195 184 192 193 193 182 180 179 183 191 197 200
350 355 349 353 350 351 3 192 208 204 203 192 192 194 201 203 194 194 188 187 185 187 189 187 187 180 185 180 182 183 188 189
358 358 352 349 352 353 9 18 35 41 162 202 188 192 190 183 177 184 183 188 183 179 185 186 188 184 184 179 181 187 188 191
354 353 357 354 354 5 9 11 24 35 28 19 132 135 160 174 181 187 181 175 188 183 188 186 189 184 175 178 180 181 185 185
350 357 2 356 358 1 10 9 20 28 38 29 43 52 44 102 160 156 136 137 134 167 207 193 187 179 176 177 175 182 187 188
354 357 5 350 353 359 6 12 14 23 32 27 28 40 32 31 355 189 170 168 156 140 149 193 206 195 181 174 175 177 184 193
355 355 352 349 357 358 4 7 11 19 32 27 19 30 28 7 4 10 133 110 87 110 201 198 206 203 191 177 175 175 186 199
358 352 349 349 359 360 6 5 8 12 21 16 21 35 31 14 15 4 20 84 169 188 196 195 189 192 181 174 167 178 193 191
353 351 355 356 355 2 4 0 9 10 17 10 16 26 25 20 15 15 18 17 357 181 190 179 188 179 168 177 158 181 190 194
355 351 348 354 357 1 1 4 1 15 12 9 13 14 19 15 16 21 18 10 359 24 27 186 184 168 180 155 161 168 204 216
352 350 352 357 356 356 2 8 14 18 15 11 12 13 17 16 15 10 8 9 20 23 25 7 312 43 13 155 157 196 194 208